HST,Max TemperatureF,Mean TemperatureF,Min TemperatureF,Max Dew PointF,MeanDew PointF,Min DewpointF,Max Humidity, Mean Humidity, Min Humidity, Max Sea Level PressureIn, Mean Sea Level PressureIn, Min Sea Level PressureIn, Max VisibilityMiles, Mean VisibilityMiles, Min VisibilityMiles, Max Wind SpeedMPH, Mean Wind SpeedMPH, Max Gust SpeedMPH,PrecipitationIn, CloudCover, Events, WindDirDegrees
2013-3-1,75,72,68,58,57,53,68,61,50,30.20,30.16,30.11,10,10,10,23,16,36,0.00,4,Rain,50
2013-3-2,75,70,66,61,56,48,76,59,46,30.22,30.16,30.09,10,10,10,23,18,34,0.00,3,Rain,52
2013-3-3,75,70,66,58,55,50,68,58,45,30.21,30.17,30.12,10,10,10,21,16,33,0.00,2,,48
2013-3-4,75,72,68,58,55,51,68,58,48,30.21,30.17,30.12,10,10,10,21,16,33,0.00,3,,46
2013-3-5,77,72,66,62,56,52,84,61,43,30.19,30.14,30.08,10,10,9,17,12,25,0.00,1,Rain,45
2013-3-6,79,71,63,61,59,57,81,70,52,30.16,30.12,30.09,10,10,10,16,9,23,0.00,1,,37
2013-3-7,79,70,61,66,61,56,93,75,52,30.12,30.08,30.01,10,10,8,12,5,22,0.07,4,Rain,36
2013-3-8,78,68,59,64,61,54,96,73,45,30.06,29.99,29.93,10,10,8,13,6,,0.00,3,,146
2013-3-9,75,70,66,66,64,59,88,79,65,29.98,29.94,29.90,10,10,5,21,13,32,0.12,6,Rain,161
2013-3-10,70,67,64,66,63,61,100,90,73,30.07,29.98,29.91,10,7,2,21,9,26,1.90,7,Rain,148
2013-3-11,75,68,62,66,63,60,100,83,69,30.10,30.05,30.00,10,9,2,12,5,,0.00,4,,2
2013-3-12,75,70,64,64,62,59,90,78,66,30.12,30.06,30.01,10,10,10,13,7,17,0.00,2,,1
2013-3-13,75,68,62,60,59,57,87,73,57,30.12,30.08,30.03,10,10,10,16,7,23,0.00,0,,21
2013-3-14,73,67,61,63,61,57,90,76,62,30.12,30.05,30.00,10,10,10,9,3,,0.00,4,Rain,355
2013-3-15,73,68,62,63,60,54,94,78,50,30.02,29.98,29.93,10,10,10,12,3,18,0.00,4,,268
2013-3-16,72,68,64,63,58,53,94,75,55,30.05,29.99,29.94,10,10,2,17,9,23,0.11,5,Rain,331
2013-3-17,73,67,61,60,56,53,79,69,55,30.07,30.03,29.97,10,10,10,12,8,17,0.04,2,,349
2013-3-18,73,66,59,59,57,55,87,72,59,30.08,30.03,29.98,10,10,10,14,6,20,0.00,2,,24
2013-3-19,77,66,55,61,57,52,87,70,46,30.06,30.02,29.98,10,10,10,14,4,20,0.00,1,,121
2013-3-20,79,69,59,65,60,55,90,70,47,30.09,30.05,30.00,10,10,10,10,4,,0.00,5,,105
2013-3-21,81,72,64,67,64,60,87,72,52,30.10,30.05,29.99,10,10,9,8,3,,0.00,5,Rain,332
2013-3-22,77,72,66,70,67,64,94,85,73,30.07,30.01,29.96,10,9,2,17,7,23,0.60,7,Rain,165
2013-3-23,73,70,66,67,65,63,100,90,71,30.07,30.01,29.96,10,8,2,20,5,26,0.63,7,Rain,10
2013-3-24,72,69,66,68,66,64,94,90,83,30.07,30.01,29.96,10,9,2,14,9,22,0.75,7,Rain,19
2013-3-25,77,72,66,69,65,63,93,82,71,30.05,30.01,29.96,10,10,10,10,5,,0.02,3,Rain,22
2013-3-26,78,71,64,67,64,61,90,80,66,30.08,30.03,29.98,10,10,10,12,6,17,0.00,2,,26
2013-3-27,75,70,64,66,64,59,94,84,69,30.07,30.01,29.98,10,10,5,16,7,23,0.04,4,Rain,9
2013-3-28,75,70,66,65,63,58,87,78,69,30.09,30.04,29.99,10,10,10,18,10,29,0.00,2,Rain,35
2013-3-29,73,70,64,64,63,60,94,80,66,30.09,30.05,30.01,10,10,8,20,11,29,0.00,3,Rain,37
2013-3-30,75,70,64,66,63,61,93,82,68,30.09,30.05,30.01,10,10,10,14,6,20,0.01,5,Rain,353
2013-3-31,73,68,62,61,53,50,83,61,44,30.09,30.05,30.00,10,10,10,18,13,23,0.00,3,,333